Location: College Park
(38.9810°N, 76.9370°W)
Time: 21:33:25
(UTC-05:00)

Tiangong 2 - Pass Details

Date: 04 January 2018
Orbit: 384 x 390 km, 42.8° (Epoch: 21 January)

Event Time Altitude Azimuth Distance (km) Brightness Sun altitude
Rises 18:47:39 0° 274° (W) 2,262 6.3 -20.5°
Reaches altitude 10° 18:51:06 10° 234° (SW) 1,401 4.8 -21.2°
Maximum altitude 18:51:55 11° 219° (SW) 1,357 4.5 -21.3°
Drops below altitude 10° 18:52:43 10° 204° (SSW) 1,398 4.3 -21.5°
Enters shadow 18:54:55 - 174° (S) 1,861 4.6 -21.9°
